This is the latest recevied weather packets stored in our database for station/object LU3HGB-WX. If no packets are shown the sender has not sent any weather packets the latest 10 day(s).
| Time | Temp. | Humidity | Pressure | Rain* | Wind** | Luminosity | Snow |
|---|---|---|---|---|---|---|---|
| 1778255259 | 11.67° C | 32% | 1015 hPa | 0 mm | - | 703 W/m² | - |
| 1778254959 | 11.67° C | 30% | 1015 hPa | 0 mm | - | 700 W/m² | - |
| 1778254660 | 11.67° C | 31% | 1015 hPa | 0 mm | - | 695 W/m² | - |
| 1778254360 | 11.67° C | 31% | 1015 hPa | 0 mm | - | 691 W/m² | - |
| 1778254062 | 11.11° C | 31% | 1015 hPa | 0 mm | - | 533 W/m² | - |
| 1778253760 | 11.11° C | 30% | 1015 hPa | 0 mm | - | 659 W/m² | - |
| 1778253459 | 11.11° C | 33% | 1016 hPa | 0 mm | - | 666 W/m² | - |
| 1778253160 | 11.11° C | 34% | 1016 hPa | 0 mm | - | 556 W/m² | - |
| 1778252859 | 10.56° C | 33% | 1016 hPa | 0 mm | - | 329 W/m² | - |
| 1778252561 | 10.56° C | 31% | 1016 hPa | 0 mm | - | 533 W/m² | - |
| 1778252260 | 10.56° C | 33% | 1016 hPa | 0 mm | - | 624 W/m² | - |
| 1778251960 | 10.56° C | 33% | 1016 hPa | 0 mm | - | 626 W/m² | - |
| 1778251660 | 10.56° C | 33% | 1016 hPa | 0 mm | - | 610 W/m² | - |
| 1778251360 | 10.56° C | 35% | 1016 hPa | 0 mm | - | 605 W/m² | - |
| 1778251060 | 10.56° C | 33% | 1016 hPa | 0 mm | - | 592 W/m² | - |
| 1778250760 | 10.56° C | 33% | 1016 hPa | 0 mm | - | 583 W/m² | - |
| 1778250460 | 10.56° C | 33% | 1017 hPa | 0 mm | - | 570 W/m² | - |
| 1778250160 | 10.56° C | 31% | 1017 hPa | 0 mm | - | 556 W/m² | - |
| 1778249860 | 10.56° C | 36% | 1017 hPa | 0 mm | - | 542 W/m² | - |
| 1778249559 | 10.56° C | 35% | 1017 hPa | 0 mm | - | 530 W/m² | - |
| 1778249260 | 10.56° C | 34% | 1017 hPa | 0 mm | - | 517 W/m² | - |
| 1778248959 | 10.56° C | 33% | 1017 hPa | 0 mm | - | 500 W/m² | - |
| 1778248660 | 10.56° C | 33% | 1017 hPa | 0 mm | - | 488 W/m² | - |
| 1778248360 | 10.56° C | 39% | 1016 hPa | 0 mm | - | 472 W/m² | - |
| 1778248060 | 10° C | 37% | 1016 hPa | 0 mm | - | 459 W/m² | - |
* Rain latest hour (hover to see other rain measurements)
** Current wind speed in m/s (hover to see current wind gust speed)